Home   Weather   Hof (Saale)   Past weeks

Flag for Germany Past Weather in Hof (Saale), Bavaria, Germany — Yesterday and Last 2 Weeks

50 °F

Mostly cloudy.

Feels Like: 50 °F
Forecast: 45 / 51 °F
Wind: No wind

Location: Hof Airport

Current Time: Oct 25, 2016 at 5:44:44 PM

Latest Report: Oct 25, 2016 at 4:50 PM

Visibility: N/A

Pressure: 30.18 "Hg

Humidity: 94%

Dew Point: 48 °F

Location of Hof (Saale)Location

Past Weather in Hof (Saale) — Graph


Hof (Saale) Temperature Yesterday

Maximum temperature yesterday: 50 °F (at 2:50 PM)
Minimum temperature yesterday: 41 °F (at 6:20 AM)
Average temperature yesterday: 46 °F

High & Low Weather Summary for the Past Weeks

High63 °F (Oct 16, 3:20 PM)94% (Oct 16, 9:20 AM)30.24 "Hg (Oct 16, 9:20 AM)
Low37 °F (Oct 20, 7:50 PM)49% (Oct 16, 3:20 PM)29.80 "Hg (Oct 14, 7:20 PM)
Average46 °F83%30.02 "Hg
* Reported Oct 10 3:20 PM — Oct 25 3:50 PM, Hof (Saale), Weather by CustomWeather, © 2016

Note: Actual official high and low records may vary slightly from our data, if they occured in-between our weather recording intervals... More about our weather records


Hof (Saale) Weather History for the Previous 24 Hours

Scroll right to see more
Time TempWeatherWind HumidityBarometerVisibility
3:50 PM
Tue, Oct 25
52 °FOvercast.No wind82%30.18 "HgN/A
3:20 PM52 °FBroken clouds.No wind82%30.18 "HgN/A
2:50 PM52 °FBroken clouds.3 mph82%30.18 "HgN/A
2:20 PM50 °FPartly sunny.3 mph94%30.18 "HgN/A
1:50 PM50 °FMostly cloudy.5 mph88%30.15 "HgN/A
1:20 PM50 °FMostly cloudy.5 mph88%30.15 "HgN/A
12:50 PM50 °FMostly cloudy.6 mph94%30.15 "HgN/A
12:20 PM50 °FLow clouds.6 mph94%30.15 "Hg6 mi
11:50 AM50 °FLow clouds.8 mph88%30.15 "Hg4 mi
11:20 AM50 °FMostly cloudy.6 mph94%30.15 "Hg5 mi
10:50 AM52 °FBroken clouds.1 mph88%30.12 "Hg4 mi
10:20 AM48 °FDrizzle. Partly sunny.2 mph94%30.12 "Hg2 mi
9:50 AM48 °FDrizzle. Low clouds.6 mph94%30.12 "Hg2 mi
9:20 AM48 °FFog.7 mph94%30.09 "Hg2 mi
8:50 AM52 °FMostly cloudy.2 mph94%30.07 "HgN/A
8:20 AM52 °FLight rain. Scattered clouds.6 mph94%30.07 "Hg5 mi
7:50 AM52 °FLight rain. Overcast.7 mph94%30.04 "Hg2 mi
7:20 AM52 °FRain. Low clouds.5 mph94%30.04 "Hg1 mi
6:50 AM52 °FDrizzle. Low clouds.5 mph94%30.04 "Hg1 mi
7:50 PM
Mon, Oct 24
50 °FPartly cloudy.5 mph88%29.95 "Hg6 mi
7:20 PM50 °FMostly cloudy.7 mph88%29.95 "Hg6 mi
6:50 PM50 °FOvercast.6 mph88%29.95 "Hg6 mi
6:20 PM50 °FPassing clouds.6 mph88%29.95 "HgN/A
5:50 PM50 °FLight rain. Mostly cloudy.6 mph88%29.95 "Hg5 mi
5:20 PM50 °FDrizzle. Overcast.7 mph88%29.95 "Hg3 mi
Weather by CustomWeather, © 2016

See weather overviewHow to use our weather pages